Weather History for Kremmling, CO

Change the Weather History Date:

Monday, August 11, 2014

  Actual Average (KEGE) Record (KEGE)
Temperature  
Mean Temperature 60 °F -  
Max Temperature 80 °F 84 °F 94 °F (1972)
Min Temperature 39 °F 46 °F 35 °F (1951)
Degree Days  
Heating Degree Days 6    
Growing Degree Days 10 (Base 50)    
Moisture  
Dew Point 31 °F    
Average Humidity 44    
Maximum Humidity 87    
Minimum Humidity 5    
Precipitation  
Precipitation 0.00 in - - ()
Sea Level Pressure  
Sea Level Pressure 30.48 in    
Wind  
Wind Speed 2 mph (WNW)    
Max Wind Speed 13 mph    
Max Gust Speed 20 mph    
Visibility 10 miles    
Events      
Averages and records for this station are not official NWS values.
T = Trace of Precipitation, MM = Missing Value Source: NWS Daily Summary

Daily Weather History Graph

Daily Weather History Graph

Search for Another Location

Airport:

Trip Planner

Search our weather history database for the weather conditions in past years. The results will help you decide how hot, cold, wet, or windy it might be!

Date:

Astronomy

Aug. 11, 2014 Rise Set
Actual Time 6:13 AM MDT 8:07 PM MDT
Civil Twilight 5:43 AM MDT 8:36 PM MDT
Nautical Twilight 5:08 AM MDT 9:12 PM MDT
Astronomical Twilight 4:29 AM MDT 9:50 PM MDT
Moon 8:37 PM MDT (8/11) 7:21 AM MDT (8/11)
Length of Visible Light 14h 52m
Length of Day
13h 54m
Full, 98% of the Moon is Illuminated
Aug 11
Full
Aug 17
Last Quarter
Aug 25
New
Sep 2
First Quarter
Sep 8
Full

Hourly Weather History & Observations

Time (MDT) Temp. Dew Point Humidity Pressure Visibility Wind Dir Wind Speed Gust Speed Precip Events Conditions
12:17 AM 53.6 °F 42.8 °F 67% 30.51 in 10.0 mi NNW 3.5 mph - N/A   Clear
12:37 AM 51.8 °F 41.0 °F 67% 30.51 in 10.0 mi Calm Calm - N/A   Clear
12:57 AM 50.0 °F 41.0 °F 71% 30.51 in 10.0 mi Calm Calm - N/A   Clear
1:17 AM 50.0 °F 39.2 °F 66% 30.51 in 10.0 mi Calm Calm - N/A   Clear
1:37 AM 50.0 °F 41.0 °F 71% 30.51 in 10.0 mi Calm Calm - N/A   Clear
1:57 AM 50.0 °F 41.0 °F 71% 30.51 in 10.0 mi ESE 3.5 mph - N/A   Clear
2:17 AM 50.0 °F 41.0 °F 71% 30.51 in 10.0 mi Calm Calm - N/A   Clear
2:37 AM 46.4 °F 39.2 °F 76% 30.51 in 10.0 mi Calm Calm - N/A   Clear
3:17 AM 44.6 °F 37.4 °F 76% 30.51 in 10.0 mi Calm Calm - N/A   Clear
3:37 AM 42.8 °F 37.4 °F 81% 30.51 in 10.0 mi Calm Calm - N/A   Clear
3:57 AM 42.8 °F 37.4 °F 81% 30.51 in 10.0 mi Calm Calm - N/A   Clear
4:16 AM 42.8 °F 37.4 °F 81% 30.51 in 10.0 mi Calm Calm - N/A   Clear
4:37 AM 41.0 °F 35.6 °F 81% 30.51 in 10.0 mi Calm Calm - N/A   Clear
4:57 AM 41.0 °F 37.4 °F 87% 30.51 in 10.0 mi Calm Calm - N/A   Clear
5:17 AM 41.0 °F 37.4 °F 87% 30.51 in 10.0 mi Calm Calm - N/A   Clear
5:37 AM 39.2 °F 35.6 °F 87% 30.51 in 10.0 mi Calm Calm - N/A   Clear
5:57 AM 41.0 °F 37.4 °F 87% 30.52 in 10.0 mi Calm Calm - N/A   Clear
6:17 AM 39.2 °F 35.6 °F 87% 30.52 in 10.0 mi Calm Calm - N/A   Clear
6:37 AM 41.0 °F 35.6 °F 81% 30.53 in 10.0 mi Calm Calm - N/A   Clear
6:57 AM 41.0 °F 35.6 °F 81% 30.53 in 10.0 mi Calm Calm - N/A   Clear
7:17 AM 41.0 °F 37.4 °F 87% 30.54 in 10.0 mi Calm Calm - N/A   Clear
7:32 AM 42.8 °F 37.4 °F 81% 30.54 in 10.0 mi Calm Calm - N/A   Clear
7:52 AM 46.4 °F 39.2 °F 76% 30.54 in 10.0 mi Calm Calm - N/A   Clear
8:17 AM 50.0 °F 39.2 °F 66% 30.55 in 10.0 mi Calm Calm - N/A   Clear
8:21 AM 50.0 °F 39.2 °F 66% 30.54 in 10.0 mi Calm Calm - N/A   Clear
8:57 AM 53.6 °F 41.0 °F 62% 30.54 in 10.0 mi Calm Calm - N/A   Clear
9:09 AM 53.6 °F 39.2 °F 58% 30.54 in 10.0 mi Calm Calm - N/A   Clear
9:36 AM 55.4 °F 39.2 °F 54% 30.53 in 10.0 mi Calm Calm - N/A   Clear
9:54 AM 59.0 °F 39.2 °F 48% 30.53 in 10.0 mi Calm Calm - N/A   Clear
10:09 AM 59.0 °F 37.4 °F 45% 30.53 in 10.0 mi Calm Calm - N/A   Clear
10:21 AM 60.8 °F 39.2 °F 45% 30.53 in 10.0 mi West 3.5 mph - N/A   Clear
10:56 AM 64.4 °F 37.4 °F 37% 30.52 in 10.0 mi Calm Calm - N/A   Clear
11:17 AM 66.2 °F 37.4 °F 35% 30.51 in 10.0 mi West 4.6 mph - N/A   Clear
11:37 AM 69.8 °F 35.6 °F 28% 30.51 in 10.0 mi Calm Calm - N/A   Clear
11:56 AM 69.8 °F 35.6 °F 28% 30.49 in 10.0 mi Calm Calm - N/A   Clear
12:17 PM 73.4 °F 33.8 °F 23% 30.49 in 10.0 mi Calm Calm - N/A   Clear
12:37 PM 77.0 °F 28.4 °F 17% 30.48 in 10.0 mi Calm Calm - N/A   Clear
12:57 PM 77.0 °F 28.4 °F 17% 30.48 in 10.0 mi West 3.5 mph - N/A   Clear
1:17 PM 78.8 °F 28.4 °F 16% 30.47 in 10.0 mi South 3.5 mph - N/A   Clear
1:37 PM 78.8 °F 28.4 °F 16% 30.47 in 10.0 mi Calm Calm - N/A   Clear
1:57 PM 78.8 °F 19.4 °F 11% 30.46 in 10.0 mi SSE 6.9 mph - N/A   Clear
2:16 PM 80.6 °F 23.0 °F 12% 30.45 in 10.0 mi SW 8.1 mph - N/A   Clear
2:37 PM 80.6 °F 24.8 °F 13% 30.44 in 10.0 mi West 6.9 mph - N/A   Clear
2:57 PM 80.6 °F 19.4 °F 10% 30.43 in 10.0 mi South 5.8 mph - N/A   Clear
3:17 PM 80.6 °F 21.2 °F 11% 30.42 in 10.0 mi SSE 6.9 mph - N/A   Clear
3:37 PM 80.6 °F 21.2 °F 11% 30.42 in 10.0 mi SW 5.8 mph - N/A   Clear
3:57 PM 80.6 °F 10.4 °F 7% 30.41 in 10.0 mi NW 4.6 mph - N/A   Clear
4:37 PM 80.6 °F 10.4 °F 7% 30.41 in 10.0 mi NW 8.1 mph - N/A   Clear
4:57 PM 80.6 °F 3.2 °F 5% 30.40 in 10.0 mi WNW 6.9 mph - N/A   Clear
5:17 PM 80.6 °F 5.0 °F 6% 30.40 in 10.0 mi WNW 5.8 mph - N/A   Clear
5:37 PM 80.6 °F 8.6 °F 6% 30.39 in 10.0 mi NW 3.5 mph - N/A   Clear
5:57 PM 80.6 °F 10.4 °F 7% 30.39 in 10.0 mi West 4.6 mph - N/A   Clear
6:16 PM 80.6 °F 14.0 °F 8% 30.38 in 10.0 mi North 8.1 mph - N/A   Clear
6:37 PM 78.8 °F 12.2 °F 8% 30.38 in 10.0 mi North 8.1 mph - N/A   Clear
6:57 PM 78.8 °F 14.0 °F 9% 30.38 in 10.0 mi NW 5.8 mph - N/A   Clear
7:16 PM 78.8 °F 12.2 °F 8% 30.39 in 10.0 mi NNW 6.9 mph - N/A   Clear
7:37 PM 77.0 °F 14.0 °F 9% 30.39 in 10.0 mi NW 4.6 mph - N/A   Clear
7:57 PM 73.4 °F 17.6 °F 12% 30.39 in 10.0 mi NNW 4.6 mph - N/A   Clear
8:17 PM 71.6 °F 33.8 °F 25% 30.40 in 10.0 mi East 11.5 mph 16.1 mph N/A   Clear
8:37 PM 69.8 °F 35.6 °F 28% 30.41 in 10.0 mi ESE 12.7 mph 19.6 mph N/A   Clear
8:57 PM 69.8 °F 37.4 °F 31% 30.42 in 10.0 mi ESE 9.2 mph - N/A   Clear
9:17 PM 66.2 °F 37.4 °F 35% 30.44 in 10.0 mi ESE 9.2 mph - N/A   Clear
9:37 PM 66.2 °F 37.4 °F 35% 30.45 in 10.0 mi East 6.9 mph - N/A   Clear
10:17 PM 60.8 °F 35.6 °F 39% 30.46 in 10.0 mi NE 4.6 mph - N/A   Clear
10:37 PM 60.8 °F 35.6 °F 39% 30.46 in 10.0 mi Calm Calm - N/A   Clear
10:57 PM 59.0 °F 35.6 °F 42% 30.47 in 10.0 mi Calm Calm - N/A   Clear
11:37 PM 53.6 °F 37.4 °F 54% 30.47 in 10.0 mi Calm Calm - N/A   Clear
11:57 PM 55.4 °F 37.4 °F 51% 30.47 in 10.0 mi Calm Calm - N/A   Clear